Home > Weather > Columbus > Past weeks

Flag for U.S.A. Weather for the Past 2 Weeks in Columbus, Georgia, U.S.A.

Now
50 °F

Light rain. Partly sunny.


Feels Like: 46 °F
Forecast: 33 / 55 °F
Wind: 12 mph from West

Location: Columbus Metropolitan Airport

Current Time: Feb 8, 2016 at 12:46:09 PM

Latest Report: Feb 8, 2016 at 11:51 AM


Visibility: 10 mi

Pressure: 29.89 "Hg

Humidity: 46%

Dew point: 30 °F

Location of ColumbusLocation

Historic Weather in Columbus — Graph

°F

Columbus Temperature Yesterday

Maximum temperature yesterday: 58 °F (at 3:51 PM)
Minimum temperature yesterday: 34 °F (at 5:51 AM)
Average temperature yesterday: 45 °F

High & Low Weather Summary for the Past Weeks

 TemperatureHumidityPressure
High73 °F (Feb 2, 1:51 PM)100% (Feb 1, 11:51 AM)30.43 "Hg (Feb 1, 11:51 AM)
Low30 °F (Jan 25, 4:51 AM)17% (Feb 5, 2:51 PM)29.85 "Hg (Jan 28, 5:51 PM)
Average50 °F67%30.09 "Hg
* Reported Jan 24 11:51 AM — Feb 8 11:51 AM, Columbus, Weather by CustomWeather, © 2016

Note: Actual official high and low records may vary slightly from our data, if they occured in-between our weather recording intervals... More about our weather records

Advertising

Columbus Weather History for the Previous 24 Hours

 ConditionsComfort  
Time TempWeatherWind HumidityBarometerVisibility
11:51 AM
Mon, Feb 8
50 °FLight rain. Partly sunny.12 mph46%29.89 "Hg10 mi
10:51 AM47 °FSunny.12 mph52%29.91 "Hg10 mi
9:51 AM45 °FSunny.14 mph53%29.90 "Hg10 mi
8:51 AM39 °FSunny.6 mph65%29.91 "Hg10 mi
7:51 AM34 °FSunny.No wind73%29.93 "Hg10 mi
6:51 AM31 °FClear.No wind82%29.93 "Hg10 mi
5:51 AM32 °FClear.No wind82%29.94 "Hg10 mi
4:51 AM34 °FClear.No wind76%29.95 "Hg10 mi
3:51 AM33 °FClear.No wind78%29.96 "Hg10 mi
2:51 AM34 °FClear.No wind76%29.98 "Hg10 mi
1:51 AM36 °FClear.No wind70%30.02 "Hg10 mi
12:51 AM40 °FClear.No wind55%30.03 "Hg10 mi
11:51 PM
Sun, Feb 7
44 °FClear.No wind43%30.02 "Hg10 mi
10:51 PM44 °FClear.3 mph43%30.02 "Hg10 mi
9:51 PM47 °FClear.5 mph37%30.03 "Hg10 mi
8:51 PM47 °FClear.7 mph39%30.03 "Hg10 mi
7:51 PM48 °FClear.6 mph37%30.03 "Hg10 mi
6:51 PM51 °FClear.6 mph32%30.01 "Hg10 mi
5:51 PM56 °FSunny.9 mph24%30.01 "Hg10 mi
4:51 PM57 °FSunny.12 mph25%30.01 "Hg10 mi
3:51 PM58 °FSunny.No wind23%30.02 "Hg10 mi
2:51 PM57 °FSunny.13 mph25%30.05 "Hg10 mi
1:51 PM57 °FSunny.10 mph25%30.09 "Hg10 mi
12:51 PM54 °FSunny.10 mph26%30.14 "Hg10 mi
Weather by CustomWeather, © 2016

See weather overviewHow to use our weather pages